Weather in Yarkul

Russia / Novosibirsk Oblast     54°38′27″N   77°23′00″E
temp.,
°C
wind,
m/s
gust,
m/s
humid.,
%
clouds,
%
prec.,
mm/h
press.,
hPa
HPBL,
m
27 february, sat
sat2701:00−28sw5798100 0.0 1035127
04:00−27sw5798100 0.0 1035220
07:00−30sw4498100 0.0 103647
10:00−30sw459899 0.0 103593
13:00−27sw449588 0.0 1036231
16:00−26ssw459696 0.0 1036251
19:00−28s449892 0.0 103632
22:00−29s449885 0.0 103632
28 february, sun
sun2801:00−30s459985 0.0 103540
04:00−29sse459991 0.0 103449
07:00−29se559990 0.0 103358
10:00−27se6109597 0.0 1031188
13:00−22se799498 0.0 1028257
16:00−18se71090100 0.0 1025337
19:00−16ese7119398 0.1 1021375
22:00−14e71194100 0.1 1018241
1 march, mon
mon101:00−10e81294100 0.6 1013328
04:00−7e81294100 1.6 1008320
07:00−6e7995100 2.8 1005200
10:00−4e3497100 1.3 1004134
13:000wsw71198100 3.0 1004540
16:000wsw61098100 1.6 1004590
19:00−5wsw5795100 2.3 1006149
22:00−11nw5794100 0.2 1009138
2 march, tue
tue201:00−14nw559599 0.3 101266
04:00−17wnw4597100 0.1 101545
07:00−19wnw4410099 0.1 101728
10:00−19w349798 0.0 1018122
13:00−17sw339295 0.1 1018240
16:00−15ssw3490100 0.0 1018313
19:00−16s2295100 0.0 101720
22:00−16sse229798 0.2 101622
3 march, wed
wed301:00−16sse229797 0.4 101621
04:00−15s1197100 0.3 101529
07:00−16wnw1196100 0.6 101520
10:00−15wnw339591 0.2 1016105
13:00−15w339189 0.2 1018246
16:00−14wsw348998 0.0 1019393
19:00−17sw349680 0.0 102021
22:00−18ssw459966 0.0 102124